CZ-6A DEB, 54938

Orbit data source: Space-Track

CZ-6A DEB, 54938 is space debris in SSO originally from a launch on Fri, 11 Nov 2022 UTC launched from the Taiyaun Space Center, China (TSC). Debris objects in space refer to the collection of defunct objects orbiting the Earth. Examples of debris include non-operational satellites, rocket bodies, and fragments generated from explosions, collisions, or faulty payload assembly.

Loading next visibility...
Identifier
54938, 2022-151SB
Orbit
SSO
Country
Flag of CNCN / PRC
Related business
Manufacturer
SAST
Mission
Spacecraft
Bus & Motor
Unknown
Mass
Unknown
Launch date (UTC)
2022-11-11 (4 years ago)
Launch vehicle
Unknown
Launch site
Taiyaun Space Center, China (TSC)
Object type
Payload
Rocket body
Debris
Shape & HBR
Unknown shape, 0.1 m
Radar Cross Section
Medium (>0.1 m² and <1 m²)

Expand to show TLE details & history
Last TLE update: 12 hours ago

TLE from 12 hours ago
0 CZ-6A DEB
1 54938U 22151SB  26237.43840025  .00019588  00000-0  18055-2 0  9998
2 54938  99.1510  50.2893 0061718  61.0955 299.6432 14.93279031201313
Epoch: 2026-08-25T10:31Z
TLE epoch observation values (Epoch: 2026-08-25T10:31:17.781Z)
Latitude
-0.00009°
Longitude
-81.24052°
Altitude
569.652 km
Speed
7.588 km/s
True Right ascension
03h 21m 09s
True Declination
0° 00' 00"
Sunlit
Object was in daylight at epoch
Visualization orbit readout
Latitude
Unknown
Longitude
Unknown
Altitude
Unknown
Speed
Unknown
Apparent Right ascension
Unknown
Apparent Declination
Unknown
Sunlit
N/A
Visualization observer readout
Local Sidereal Time
13:19:26
Azimuth
Unknown
Elevation
Unknown
Doppler factor
Unknown
Orbital elements
Apogee altitude
627.777 km
Perigee altitude
541.829 km
Semi-major axis
6,962.94 km
Eccentricity
0.00617
Inclination
99.151°
RAAN
50.2893°
Arg. of periapsis
61.0955°
True anomaly
299.02618°
Mean anomaly
299.6432°
Eccentric anomaly
299.33493°
Mean motion
3.73555 °/min
Orbital period
96.37 mins
BSTAR
0.0018055
Loading maneuver chart data...
Computing Atmospheric mass density...
Loading historical data...
Loading historical data...
Loading historical data...
Loading historical data...
Loading historical data...
Loading historical data...
Loading historical data...

Documentation

Showing up to 5 results
|